Date String (YYYY-MM-DD hh:mm:ss) UTC,Instrument flags,absolute air pressure of the measurement (hPa),sample flow rate (lpm),inlet stack bypass flow (lpm),air temperature of the measurement (°C),ambient temperature measured by the external sensor (°C),aerosol sample conditioner tube jacket temperature (°C),OPC LED temperature (°C),internal box temperature (°C),relative humidity of the measurement (%),span deviation,mass concentration of particles derived from Lorenz-Mie calculation of OPC scattering (μg/m³),mass concentration of particles derived from Lorenz-Mie calculation of OPC scattering (μg/m³),mass concentration of particles derived from Lorenz-Mie calculation of OPC scattering (μg/m³)
DateTimeUTC,F1_M11,P_M11,Q1_M11,Q2_M11,T1_M11,T2_M11,T3_M11,T4_M11,T5_M11,U1_M11,ZSPAN_M11,X0_M11,X2_M11,X1_M11
2023-06-27 00:00:00,SystemResetWarning,0827.9,5.01,000.00,029.4,028.0,000.0,037.7,031.1,32.6,0002.7,0024.03,0007.61,0005.76
2023-06-27 00:01:00,SystemResetWarning,0827.8,5.00,000.00,029.4,027.3,000.0,037.7,031.1,31.6,0002.9,0024.46,0007.62,0005.75
2023-06-27 00:02:00,SystemResetWarning,0827.8,4.99,000.00,029.4,025.5,000.0,037.7,030.9,31.9,0002.4,0024.54,0007.64,0005.76
2023-06-27 00:03:00,SystemResetWarning,0827.7,5.02,000.00,029.4,024.9,000.0,037.6,031.0,32.0,0002.3,0024.73,0007.65,0005.76
2023-06-27 00:04:00,SystemResetWarning,0827.7,5.00,000.00,029.3,025.1,000.0,037.6,030.8,31.6,0002.1,0024.43,0007.66,0005.75
2023-06-27 00:05:00,SystemResetWarning,0827.8,5.00,000.00,029.3,025.5,000.0,037.7,030.6,32.3,0001.7,0024.75,0007.72,0005.75
2023-06-27 00:06:00,SystemResetWarning,0827.8,5.00,000.00,029.2,026.0,000.0,037.7,030.7,31.5,0003.2,0024.57,0007.72,0005.74
2023-06-27 00:07:00,SystemResetWarning,0827.8,5.00,000.00,029.3,026.5,000.0,037.7,030.8,31.7,0002.3,0024.68,0007.70,0005.72
2023-06-27 00:08:00,SystemResetWarning,0827.8,5.00,000.00,029.3,027.0,000.0,037.7,030.9,31.4,0001.8,0023.43,0007.69,0005.71
2023-06-27 00:09:00,SystemResetWarning,0827.7,5.00,000.00,029.3,027.4,000.0,037.7,031.0,30.9,0004.1,0024.05,0007.71,0005.69
2023-06-27 00:10:00,SystemResetWarning,0827.8,5.00,000.00,029.4,027.7,000.0,037.7,031.1,30.2,0004.2,0024.39,0007.68,0005.68
2023-06-27 00:11:00,SystemResetWarning,0827.7,4.98,000.00,029.4,027.4,000.0,037.7,031.2,31.7,0000.6,0025.35,0007.68,0005.66
2023-06-27 00:12:00,SystemResetWarning,0827.8,5.00,000.00,029.4,025.6,000.0,037.7,031.0,29.9,0000.0,0026.34,0007.63,0005.65
2023-06-27 00:13:00,SystemResetWarning,0827.8,5.01,000.00,029.4,024.8,000.0,037.6,031.0,30.6,0000.0,0025.48,0007.59,0005.63
2023-06-27 00:14:00,SystemResetWarning,0827.8,5.02,000.00,029.3,024.9,000.0,037.6,030.7,31.1,0002.5,0025.94,0007.50,0005.61
2023-06-27 00:15:00,SystemResetWarning,0827.8,5.00,000.00,029.2,025.4,000.0,037.6,030.6,32.2,0003.7,0025.06,0007.42,0005.60
2023-06-27 00:16:00,SystemResetWarning,0827.8,4.99,000.00,029.2,025.9,000.0,037.7,030.7,31.2,0003.2,0025.45,0007.37,0005.59
2023-06-27 00:17:00,SystemResetWarning,0827.8,5.00,000.00,029.2,026.4,000.0,037.7,030.8,30.7,0003.7,0026.18,0007.34,0005.59
2023-06-27 00:18:00,SystemResetWarning,0827.8,5.00,000.00,029.3,026.9,000.0,037.7,030.9,31.3,0003.4,0026.26,0007.33,0005.60
2023-06-27 00:19:00,SystemResetWarning,0827.8,5.00,000.00,029.3,027.3,000.0,037.7,031.0,30.4,0002.7,0026.84,0007.31,0005.61
2023-06-27 00:20:00,SystemResetWarning,0827.7,5.00,000.00,029.4,027.6,000.0,037.7,031.1,30.2,0000.0,0027.13,0007.33,0005.61
2023-06-27 00:21:00,SystemResetWarning,0827.7,5.00,000.00,029.4,027.5,000.0,037.7,031.2,29.2,0000.0,0027.32,0007.37,0005.61
2023-06-27 00:22:00,SystemResetWarning,0827.8,4.99,000.00,029.4,025.7,000.0,037.7,031.1,29.1,0000.0,0026.02,0007.35,0005.62
2023-06-27 00:23:00,SystemResetWarning,0827.7,5.01,000.00,029.4,024.8,000.0,037.6,031.0,29.7,0000.2,0025.68,0007.40,0005.61
2023-06-27 00:24:00,SystemResetWarning,0827.7,5.00,000.00,029.3,024.8,000.0,037.6,030.8,29.1,0000.5,0027.67,0007.43,0005.61
2023-06-27 00:25:00,SystemResetWarning,0827.7,5.00,000.00,029.2,025.2,000.0,037.6,030.6,29.1,0000.0,0026.94,0007.47,0005.61
2023-06-27 00:26:00,SystemResetWarning,0827.8,5.00,000.00,029.2,025.7,000.0,037.6,030.6,29.6,0000.0,0027.56,0007.50,0005.60
2023-06-27 00:27:00,SystemResetWarning,0827.8,4.99,000.00,029.2,026.3,000.0,037.7,030.8,28.8,0000.4,0027.95,0007.48,0005.58
2023-06-27 00:28:00,SystemResetWarning,0827.8,5.00,000.00,029.2,026.8,000.0,037.7,030.9,27.9,0000.0,0027.51,0007.43,0005.56
2023-06-27 00:29:00,SystemResetWarning,0827.8,5.01,000.00,029.3,027.2,000.0,037.7,030.9,28.2,0001.0,0026.85,0007.43,0005.54
2023-06-27 00:30:00,SystemResetWarning,0827.8,4.99,000.00,029.3,027.6,000.0,037.7,031.0,27.8,0002.1,0026.42,0007.37,0005.51
2023-06-27 00:31:00,SystemResetWarning,0827.8,4.99,000.00,029.4,027.8,000.0,037.7,031.1,28.2,0003.2,0025.85,0007.30,0005.49
2023-06-27 00:32:00,SystemResetWarning,0827.8,5.00,000.00,029.4,027.1,000.0,037.7,031.2,29.2,0000.0,0024.44,0007.31,0005.50
2023-06-27 00:33:00,SystemResetWarning,0827.7,5.00,000.00,029.4,025.3,000.0,037.7,031.0,28.7,0003.6,0024.55,0007.29,0005.48
2023-06-27 00:34:00,SystemResetWarning,0827.7,5.01,000.00,029.4,024.7,000.0,037.6,031.0,28.1,0003.8,0023.60,0007.23,0005.47
2023-06-27 00:35:00,SystemResetWarning,0827.7,5.01,000.00,029.3,024.9,000.0,037.6,030.7,27.6,0000.7,0022.06,0007.16,0005.45
2023-06-27 00:36:00,SystemResetWarning,0827.7,5.00,000.00,029.2,025.4,000.0,037.6,030.6,29.0,0000.4,0021.77,0007.13,0005.43
2023-06-27 00:37:00,SystemResetWarning,0827.7,5.00,000.00,029.2,026.0,000.0,037.6,030.7,29.6,0000.4,0021.65,0007.08,0005.40
2023-06-27 00:38:00,SystemResetWarning,0827.7,5.00,000.00,029.2,026.5,000.0,037.7,030.8,27.5,0000.0,0021.20,0007.07,0005.39
2023-06-27 00:39:00,SystemResetWarning,0827.7,4.99,000.00,029.3,027.0,000.0,037.7,030.9,28.0,0000.0,0022.86,0007.06,0005.38
2023-06-27 00:40:00,SystemResetWarning,0827.8,5.00,000.00,029.3,027.4,000.0,037.7,031.0,28.4,0000.0,0022.74,0007.02,0005.36
2023-06-27 00:41:00,SystemResetWarning,0827.8,4.99,000.00,029.3,027.7,000.0,037.7,031.1,29.6,0000.0,0022.79,0007.07,0005.35
2023-06-27 00:42:00,SystemResetWarning,0827.7,5.01,000.00,029.4,027.9,000.0,037.8,031.2,28.4,0000.0,0022.63,0007.06,0005.34
2023-06-27 00:43:00,SystemResetWarning,0827.7,4.98,000.00,029.4,026.5,000.0,037.7,031.1,28.1,0000.0,0023.17,0007.03,0005.30
2023-06-27 00:44:00,SystemResetWarning,0827.7,5.01,000.00,029.4,025.0,000.0,037.7,030.9,28.1,0000.0,0023.82,0007.01,0005.29
2023-06-27 00:45:00,SystemResetWarning,0827.7,5.01,000.00,029.3,024.8,000.0,037.6,030.9,28.1,0000.0,0024.14,0007.05,0005.28
2023-06-27 00:46:00,SystemResetWarning,0827.7,5.01,000.00,029.2,025.1,000.0,037.6,030.6,28.7,0000.0,0024.58,0007.06,0005.26
2023-06-27 00:47:00,SystemResetWarning,0827.7,5.00,000.00,029.2,025.6,000.0,037.7,030.6,28.2,0000.0,0025.03,0007.03,0005.23
2023-06-27 00:48:00,SystemResetWarning,0827.7,4.99,000.00,029.2,026.1,000.0,037.7,030.7,29.0,0000.0,0023.68,0007.01,0005.21
2023-06-27 00:49:00,SystemResetWarning,0827.7,5.00,000.00,029.2,026.6,000.0,037.7,030.9,28.9,0000.0,0022.87,0006.92,0005.18
2023-06-27 00:50:00,SystemResetWarning,0827.7,5.01,000.00,029.3,027.1,000.0,037.7,030.9,28.5,0000.0,0020.75,0006.92,0005.16
2023-06-27 00:51:00,SystemResetWarning,0827.8,5.00,000.00,029.3,027.4,000.0,037.7,031.0,27.4,0000.0,0020.13,0006.90,0005.16
2023-06-27 00:52:00,SystemResetWarning,0827.7,4.99,000.00,029.4,027.7,000.0,037.7,031.1,27.5,0000.0,0019.43,0006.84,0005.14
2023-06-27 00:53:00,SystemResetWarning,0827.8,5.00,000.00,029.4,026.6,000.0,037.7,031.1,27.6,0000.0,0019.07,0006.81,0005.14
2023-06-27 00:54:00,SystemResetWarning,0827.7,5.00,000.00,029.3,025.0,000.0,037.7,030.9,27.8,0000.0,0018.84,0006.78,0005.14
2023-06-27 00:55:00,SystemResetWarning,0827.7,5.01,000.00,029.3,024.7,000.0,037.6,030.9,28.8,0000.0,0018.84,0006.75,0005.12
2023-06-27 00:56:00,SystemResetWarning,0827.7,5.00,000.00,029.2,024.9,000.0,037.6,030.6,30.2,0000.0,0018.63,0006.70,0005.11
2023-06-27 00:57:00,SystemResetWarning,0827.7,5.00,000.00,029.1,025.4,000.0,037.6,030.6,30.0,0000.0,0018.37,0006.69,0005.10
2023-06-27 00:58:00,SystemResetWarning,0827.7,5.00,000.00,029.2,026.0,000.0,037.6,030.7,30.3,0000.0,0018.75,0006.73,0005.11
2023-06-27 00:59:00,SystemResetWarning,0827.7,5.01,000.00,029.2,026.5,000.0,037.6,030.8,28.2,0000.0,0020.84,0006.74,0005.12
